Orbital Elements at Epoch 2459200.5 (2020-Dec-17.0) TDB
Reference: JPL 25 (heliocentric ecliptic J2000)
Element | Value | Uncertainty (1-sigma) | Units |
e | .1654003247421624 | 4.6148e-08 | |
a | 2.359907286713635 | 1.1336e-08 | au |
q | 1.969577855129805 | 1.0614e-07 | au |
i | 6.302823508417188 | 4.595e-06 | deg |
node | 172.2201826807905 | 3.9105e-05 | deg |
peri | 218.2098756749398 | 4.0882e-05 | deg |
M | 319.6042020540567 | 1.227e-05 | deg |
tp | 2459349.084849678022 (2021-May-14.58484968) | 4.5553e-05 | TDB |
period | 1324.161140613379 3.63 | 9.5407e-06 2.612e-08 | d yr |
n | .2718702346402043 | 1.9588e-09 | deg/d |
Q | 2.750236718297466 | 1.321e-08 | au |
|
| | Orbit Determination Parameters
Additional Information
|